Tracking 19969 objects as of 12-Nov-2019
Live streaming from Space Station
objects crossing your sky now
Track the group of recently launched Starlink satellites

SL-24 DEB

Track SL-24 DEB now!
10-day predictions


NORAD ID: 33398
Int'l Code: 2008-049C
Perigee: 632.2 km
Apogee: 669.4 km
Inclination: 98.8 °
Period: 97.6 minutes
Semi major axis: 7021 km
RCS: 7.1923 m2 (large)
Launch date: October 1, 2008
Source: Commonwealth of Independent States (former USSR) (CIS)
Launch site: Orenburg, Russia (OREN)

Note: This is SATELLITE DEBRIS
aabbcc
Your satellite tracking list
Your tracking list is empty




NASA's NSSDC Master Catalog

Two Line Element Set (TLE):
1 33398U 08049C   19315.89570881  .00000220  00000-0  41163-4 0  9995
2 33398  98.7799  52.7119 0026479 259.4757 100.3466 14.75466859597049
Source of the keplerian elements: AFSPC